{"data":{"norad_id":65838,"epoch":"2026-05-25T03:30:55.791648Z","epoch_age_seconds":59013,"freshness":"FRESH","line1":"1 65838U 25221R   26145.14647907  .00013612  00000+0  47081-3 0  9993","line2":"2 65838  53.1570  93.6070 0001074  75.9098 284.2022 15.30202894 36438","mean_motion":15.30202894,"eccentricity":0.0001074,"inclination_deg":53.157,"raan_deg":93.607,"arg_perigee_deg":75.9098,"mean_anomaly_deg":284.2022,"bstar":0.00047081,"rev_number":3643,"period_min":94.105167729476,"perigee_km":474.47037938637,"apogee_km":475.94247755481,"semimajor_km":6853.3434284706,"source":"CELESTRAK","updated_at":"2026-05-25T13:38:20.945256Z"}}